User: anonymous   Login
Location: Unnamed
(23.5608°S, 46.6833°W)
Time: 02:48:39
(UTC-03:00)
Language:

SPROUT - Orbit

View from above orbital plane
View from above orbital plane
View from above satellite
View from above satellite

Ground track
Ground track

The orbit data is extracted from the following two-line orbital elements,

1 39770U 14029E   24197.85352065  .00341741  00000-0  39337-2 0  9996
2 39770  98.0049 353.7961 0005483 268.0966  91.9661 15.60844773552109
Epoch (UTC): 15 July 2024 20:29:04
Eccentricity: 0.0005483
inclination: 98.0049°
perigee height: 381 km
apogee height: 389 km
right ascension of ascending node: 353.7961°
argument of perigee: 268.0966°
revolutions per day: 15.60844773
mean anomaly at epoch: 91.9661°
orbit number at epoch: 55210

The dashed part of the orbit path shows where the satellite is in the earth's shadow,  

DLR